Fresno, CA

1:19 AM PDT on July 25, 2017 (GMT -0700)
Fresno Yosemite International

Weather History for KFAT - May, 2013

Change the Weather History Date:

Thursday, May 30, 2013

  Actual Average Record
Temperature  
Mean Temperature 74 °F 73 °F  
Max Temperature 89 °F 88 °F 109 °F (1910)
Min Temperature 58 °F 59 °F 45 °F (1988)
Degree Days  
Heating Degree Days 0    
Month to date heating degree days 4  
Since 1 July heating degree days 1745  
Cooling Degree Days 9    
Month to date cooling degree days 249  
Year to date cooling degree days 396  
Growing Degree Days 23 (Base 50)    
Moisture  
Dew Point 44 °F    
Average Humidity 39    
Maximum Humidity 64    
Minimum Humidity 14    
Precipitation  
Precipitation 0.00 in 0.01 in 0.38 in (1948)
Month to date precipitation 0.07 0.42  
Year to date precipitation 2.28 7.62  
Since 1 July precipitation 5.67  
Snow  
Snow 0.00 in - - ()
Month to date snowfall 0.0  
Since 1 July snowfall 0.0  
Snow Depth 0.00 in    
Sea Level Pressure  
Sea Level Pressure 29.89 in    
Wind  
Wind Speed 8 mph (NW)    
Max Wind Speed 17 mph    
Max Gust Speed 26 mph    
Visibility 10 miles    
Events      
T = Trace of Precipitation, MM = Missing Value Source: NWS Daily Summary

Daily Weather History Graph

Daily Weather History Graph

Search for Another Location

Airport or City:

Trip Planner

Search our weather history database for the weather conditions in past years. The results will help you decide how hot, cold, wet, or windy it might be!

Date:

Astronomy

May. 30, 2013 Rise Set
Actual Time 5:42 AM PDT 8:11 PM PDT
Civil Twilight 5:12 AM PDT 8:41 PM PDT
Nautical Twilight 4:34 AM PDT 9:18 PM PDT
Astronomical Twilight 3:53 AM PDT 9:59 PM PDT
Moon 12:20 AM PDT (5/30) 11:49 AM PDT (5/30)
Length of Visible Light 15h 29m
Length of Day
14h 29m
Waning Gibbous, 61% of the Moon is Illuminated
May 30
Waning Gibbous
May 31
Last Quarter
Jun 8
New
Jun 16
First Quarter
Jun 23
Full

Hourly Weather History & Observations

Time (PDT) Temp. Dew Point Humidity Pressure Visibility Wind Dir Wind Speed Gust Speed Precip Events Conditions
12:53 AM 66.0 °F 48.9 °F 54% 29.87 in 10.0 mi WNW 13.8 mph - N/A   Clear
1:53 AM 64.9 °F 46.9 °F 52% 29.88 in 10.0 mi NW 12.7 mph - N/A   Clear
2:53 AM 63.0 °F 46.0 °F 54% 29.88 in 10.0 mi NW 9.2 mph - N/A   Clear
3:53 AM 61.0 °F 46.0 °F 58% 29.88 in 10.0 mi WNW 5.8 mph - N/A   Clear
4:53 AM 60.1 °F 46.0 °F 60% 29.87 in 10.0 mi NNW 6.9 mph - N/A   Clear
5:53 AM 59.0 °F 46.9 °F 64% 29.89 in 10.0 mi NNW 3.5 mph - N/A   Scattered Clouds
6:53 AM 60.1 °F 48.0 °F 64% 29.91 in 10.0 mi NW 8.1 mph - N/A   Scattered Clouds
7:53 AM 64.0 °F 48.0 °F 56% 29.92 in 10.0 mi NW 5.8 mph - N/A   Clear
8:53 AM 68.0 °F 48.9 °F 50% 29.92 in 10.0 mi Calm Calm - N/A   Partly Cloudy
9:53 AM 71.1 °F 48.9 °F 45% 29.93 in 10.0 mi Variable 3.5 mph - N/A   Partly Cloudy
10:53 AM 75.0 °F 48.9 °F 40% 29.92 in 10.0 mi Variable 4.6 mph - N/A   Partly Cloudy
11:53 AM 78.1 °F 50.0 °F 37% 29.92 in 10.0 mi Variable 4.6 mph - N/A   Partly Cloudy
12:53 PM 82.0 °F 50.0 °F 33% 29.91 in 10.0 mi NNW 8.1 mph - N/A   Partly Cloudy
1:53 PM 84.9 °F 48.0 °F 28% 29.90 in 10.0 mi NW 8.1 mph - N/A   Partly Cloudy
2:53 PM 88.0 °F 45.0 °F 22% 29.88 in 10.0 mi NW 11.5 mph 19.6 mph N/A   Partly Cloudy
3:53 PM 88.0 °F 39.0 °F 18% 29.86 in 10.0 mi WNW 12.7 mph - N/A   Clear
4:53 PM 89.1 °F 33.1 °F 14% 29.86 in 10.0 mi WNW 12.7 mph - N/A   Clear
5:53 PM 88.0 °F 30.9 °F 13% 29.85 in 10.0 mi WNW 17.3 mph - N/A   Clear
6:53 PM 84.9 °F 37.0 °F 18% 29.85 in 10.0 mi WNW 19.6 mph - N/A   Clear
7:53 PM 82.0 °F 37.9 °F 21% 29.86 in 10.0 mi WNW 15.0 mph - N/A   Clear
8:53 PM 79.0 °F 39.0 °F 24% 29.87 in 10.0 mi WNW 12.7 mph - N/A   Clear
9:53 PM 77.0 °F 39.9 °F 26% 29.89 in 10.0 mi WNW 13.8 mph - N/A   Clear
10:53 PM 75.0 °F 41.0 °F 29% 29.90 in 10.0 mi WNW 17.3 mph - N/A   Clear
11:53 PM 72.0 °F 43.0 °F 35% 29.90 in 10.0 mi NW 16.1 mph - N/A   Clear